1516089600.09,53871,6.81,71892.8,-8.41,-24.47,-25.71,0,*51
1516089601.36,53872,6.81,71892.0,-8.39,-24.47,-25.71,0,*5D
1516089602.58,53873,6.81,71892.0,-8.41,-24.35,-25.65,0,*53
1516089603.82,53874,6.81,71894.0,-8.41,-24.31,-25.55,0,*53
1516089605.09,53875,6.81,71890.3,-8.39,-24.31,-25.55,0,*5D
1516089606.31,53876,6.81,71892.3,-8.41,-24.35,-25.65,0,*56
1516089607.55,53877,6.81,71892.8,-8.39,-24.35,-25.65,0,*58
1516089608.77,53878,6.81,71890.8,-8.41,-24.35,-25.65,0,*58
1516089610.02,53879,6.81,71896.5,-8.41,-24.31,-25.71,0,*58
1516089611.24,53880,6.81,71892.0,-8.41,-24.31,-25.65,0,*5B
1516089612.49,53881,6.81,71890.5,-8.41,-24.47,-25.71,0,*5E
1516089613.71,53882,6.81,71892.8,-8.41,-24.31,-25.65,0,*59
1516089614.98,53883,6.81,71892.5,-8.39,-24.47,-25.71,0,*53
1516089616.24,53884,6.81,71892.5,-8.39,-24.35,-25.81,0,*5E
1516089617.51,53885,6.81,71894.0,-8.39,-24.47,-25.71,0,*55
1516089618.75,53886,6.81,71900.5,-8.41,-24.47,-25.81,0,*56
1516089620.02,53887,6.81,71896.3,-8.39,-24.35,-25.81,0,*5D
1516089621.26,53888,6.81,71898.5,-8.41,-24.31,-25.71,0,*56
1516089622.53,53889,6.81,71896.5,-8.39,-24.35,-25.81,0,*53
1516089623.79,53890,6.81,71902.3,-8.39,-24.35,-25.71,0,*54
1516089625.04,53891,6.81,71896.3,-8.41,-24.31,-25.81,0,*51
1516089626.3,53892,6.81,71906.5,-8.39,-24.35,-25.81,0,*59
1516089627.57,53893,6.81,71898.0,-8.39,-24.31,-25.71,0,*53
1516089628.83,53894,6.81,71894.8,-8.39,-24.31,-25.81,0,*5B
1516089630.08,53895,6.81,71894.5,-8.37,-24.31,-25.81,0,*54
1516089631.35,53896,6.81,71904.0,-8.39,-24.47,-25.97,0,*5F
1516089632.59,53897,6.81,71898.0,-8.37,-24.25,-25.91,0,*52
1516089633.83,53898,6.81,71898.0,-8.39,-24.35,-26.03,0,*5A
1516089635.1,53899,6.81,71898.0,-8.39,-24.35,-25.97,0,*55
1516089636.34,53900,6.81,71894.5,-8.39,-24.35,-26.03,0,*5A
1516089637.58,53901,6.81,71892.3,-8.35,-24.31,-26.07,0,*57
1516089638.82,53902,6.81,71892.5,-8.37,-24.41,-26.07,0,*51
1516089640.07,53903,6.81,71890.3,-8.37,-24.47,-26.13,0,*53
1516089641.27,53904,6.81,71886.5,-8.37,-24.61,-26.23,0,*53
1516089642.53,53905,6.81,71894.5,-8.35,-24.67,-26.23,0,*56
1516089643.74,53906,6.81,71896.5,-8.37,-24.77,-26.45,0,*56
1516089644.98,53907,6.81,71898.3,-8.37,-24.67,-26.45,0,*56
1516089646.22,53908,6.81,71896.8,-8.35,-24.77,-26.39,0,*51
1516089647.49,53909,6.81,71900.0,-8.35,-24.83,-26.39,0,*5B
1516089648.7,53910,6.81,71900.8,-8.37,-24.77,-26.39,0,*5A
1516089649.96,53911,6.81,71898.8,-8.37,-24.67,-26.29,0,*5B
1516089651.16,53912,6.81,71896.0,-8.37,-24.93,-26.45,0,*59
1516089652.36,53913,6.81,71894.3,-8.37,-24.93,-26.45,0,*58
1516089653.65,53914,6.81,71900.3,-8.35,-24.83,-26.29,0,*56
1516089654.89,53915,6.81,71902.3,-8.35,-24.77,-26.39,0,*5D
1516089656.11,53916,6.81,71898.8,-8.37,-24.77,-26.39,0,*5C
1516089657.35,53917,6.81,71896.3,-8.35,-24.51,-26.23,0,*50
1516089658.59,53918,6.81,71896.0,-8.35,-24.51,-26.23,0,*5F
1516089659.84,53919,6.81,71900.5,-8.35,-24.51,-26.39,0,*55
1516089661.07,53920,6.81,71900.8,-8.35,-24.77,-26.45,0,*50
1516089662.31,53921,6.81,71898.8,-8.35,-24.77,-26.45,0,*51
1516089663.57,53922,6.81,71896.3,-8.35,-24.67,-26.45,0,*53
1516089664.8,53923,6.81,71894.0,-8.35,-24.61,-26.45,0,*54
1516089666.09,53924,6.81,71890.8,-8.35,-24.67,-26.55,0,*54
1516089667.32,53925,6.81,71894.5,-8.37,-24.77,-26.55,0,*56
1516089668.58,53926,6.81,71898.8,-8.35,-24.83,-26.61,0,*5B
1516089669.84,53927,6.81,71896.8,-8.35,-24.93,-26.77,0,*5C
1516089671.09,53928,6.81,71902.0,-8.35,-24.97,-26.77,0,*57
1516089672.32,53929,6.81,71898.3,-8.35,-24.93,-26.65,0,*51
1516089673.58,53930,6.81,71894.3,-8.35,-24.97,-26.77,0,*5E
1516089674.84,53931,6.81,71906.5,-8.35,-25.13,-26.93,0,*58
1516089676.04,53932,6.81,71900.0,-8.37,-24.97,-26.65,0,*5D
1516089677.27,53933,6.81,71898.0,-8.33,-24.87,-26.61,0,*5D
1516089678.5,53934,6.81,71896.5,-8.35,-24.93,-26.65,0,*5D
1516089679.73,53935,6.81,71896.5,-8.33,-24.87,-26.61,0,*5B
1516089680.99,53936,6.81,71900.0,-8.35,-24.83,-26.65,0,*5E
1516089682.26,53937,6.81,71900.8,-8.35,-24.83,-26.61,0,*5B
1516089683.49,53938,6.81,71904.8,-8.35,-24.77,-26.61,0,*5F
1516089684.73,53939,6.81,71902.3,-8.35,-24.97,-26.65,0,*54
1516089685.95,53940,6.81,71902.5,-8.35,-24.93,-26.61,0,*5A
1516089687.16,53941,6.81,71904.0,-8.33,-24.77,-26.49,0,*5D
1516089688.41,53942,6.81,71900.3,-8.33,-24.71,-26.39,0,*5F
1516089689.67,53943,6.81,71906.8,-8.35,-24.67,-26.45,0,*54
1516089690.92,53944,6.81,71908.0,-8.35,-24.77,-26.55,0,*53
1516089692.19,53945,6.81,71904.3,-8.35,-24.67,-26.61,0,*54
1516089693.45,53946,6.81,71900.8,-8.33,-24.71,-26.55,0,*51
1516089694.69,53947,6.81,71900.8,-8.29,-24.71,-26.49,0,*56
1516089695.96,53948,6.81,71900.8,-8.33,-24.71,-26.55,0,*5F
1516089697.19,53949,6.81,71896.3,-8.33,-24.93,-26.77,0,*52
1516089698.41,53950,6.81,71896.0,-8.33,-24.93,-26.77,0,*5A
1516089699.65,53951,6.81,71888.8,-8.33,-24.87,-26.87,0,*51
1516089700.9,53952,6.81,71884.5,-8.33,-25.03,-26.93,0,*5A
1516089702.11,53953,6.81,71888.8,-8.29,-25.19,-27.07,0,*57
1516089703.34,53954,6.81,71894.3,-8.33,-25.19,-27.23,0,*5D
1516089704.57,53955,6.81,71890.0,-8.33,-25.23,-27.19,0,*5C
1516089705.8,53956,6.81,71892.5,-8.33,-25.23,-27.19,0,*5F
1516089707.03,53957,6.81,71888.3,-8.33,-25.23,-27.19,0,*5E
1516089708.26,53958,6.81,71890.3,-8.29,-25.39,-27.23,0,*58
1516089709.52,53959,6.81,71894.5,-8.33,-25.45,-27.35,0,*5E
1516089710.75,53960,6.81,71898.0,-8.33,-25.39,-27.23,0,*58
1516089712.01,53961,6.81,71888.3,-8.33,-25.45,-27.35,0,*55
1516089713.27,53962,6.81,71886.0,-8.33,-25.55,-27.35,0,*57
1516089714.54,53963,6.81,71890.0,-8.33,-25.55,-27.35,0,*56
1516089715.8,53964,6.81,71894.3,-8.33,-25.55,-27.39,0,*5D
1516089717.07,53965,6.81,71892.8,-8.33,-25.55,-27.35,0,*50
1516089718.34,53966,6.81,71894.3,-8.33,-25.55,-27.35,0,*53
1516089719.57,53967,6.81,71896.3,-8.35,-25.65,-27.55,0,*51
1516089720.83,53968,6.81,71892.3,-8.33,-25.55,-27.39,0,*51
1516089722.1,53969,6.81,71896.0,-8.29,-25.55,-27.35,0,*57
1516089723.37,53970,6.81,71894.8,-8.33,-25.55,-27.39,0,*58
1516089724.6,53971,6.81,71888.5,-8.33,-25.61,-27.39,0,*5E
1516089725.83,53972,6.81,71888.8,-8.35,-25.65,-27.55,0,*55
1516089727.07,53973,6.81,71876.0,-8.35,-25.65,-27.55,0,*54
1516089728.32,53974,6.81,71884.0,-8.35,-25.61,-27.45,0,*56
1516089729.58,53975,6.81,71894.0,-8.35,-25.65,-27.45,0,*53
1516089730.83,53976,6.81,71890.8,-8.35,-25.65,-27.45,0,*50
1516089732.06,53977,6.81,71886.0,-8.35,-25.61,-27.55,0,*54
1516089733.27,53978,6.81,71888.0,-8.33,-25.65,-27.55,0,*59
1516089734.51,53979,6.81,71880.3,-8.35,-25.65,-27.55,0,*5E
1516089735.77,53980,6.81,71884.0,-8.35,-25.75,-27.67,0,*58
1516089737.0,53981,6.81,71890.0,-8.35,-25.65,-27.55,0,*59
1516089738.24,53982,6.81,71892.5,-8.35,-25.65,-27.67,0,*5B
1516089739.5,53983,6.81,71886.5,-8.35,-25.81,-27.77,0,*51
1516089740.76,53984,6.81,71888.3,-8.35,-25.75,-27.77,0,*5D
1516089742.01,53985,6.81,71888.5,-8.35,-25.81,-27.77,0,*57
1516089743.24,53986,6.81,71890.3,-8.35,-25.91,-27.93,0,*5F
1516089744.45,53987,6.81,71894.3,-8.37,-25.91,-27.93,0,*5C
1516089745.73,53988,6.81,71888.5,-8.35,-25.81,-27.83,0,*51
1516089746.94,53989,6.81,71888.0,-8.37,-25.91,-27.93,0,*52
1516089748.17,53990,6.81,71886.5,-8.35,-26.07,-27.93,0,*54
1516089749.4,53991,6.81,71886.8,-8.35,-26.07,-27.93,0,*55
1516089750.69,53992,6.81,71888.5,-8.35,-26.13,-27.99,0,*59
1516089751.95,53993,6.81,71886.5,-8.37,-26.13,-27.99,0,*5A
1516089753.19,53994,6.81,71884.0,-8.35,-26.07,-27.93,0,*50
1516089754.42,53995,6.81,71888.0,-8.35,-26.07,-27.93,0,*51
1516089755.7,53996,6.81,71890.8,-8.35,-26.13,-28.09,0,*5B
1516089756.99,53997,6.81,71894.3,-8.35,-26.13,-28.09,0,*5A
1516089758.24,53998,6.81,71890.3,-8.35,-26.23,-28.09,0,*56
1516089759.53,53999,6.81,71890.0,-8.35,-26.13,-27.99,0,*52
1516089760.79,54000,6.81,71892.5,-8.37,-26.13,-27.83,0,*55
1516089762.04,54001,6.81,71894.5,-8.35,-26.23,-28.09,0,*58
1516089763.27,54002,6.81,71892.8,-8.37,-26.23,-28.09,0,*59
1516089764.5,54003,6.81,71892.5,-8.37,-26.23,-28.09,0,*58
1516089765.76,54004,6.81,71888.8,-8.37,-26.13,-27.99,0,*5A
1516089767.03,54005,6.81,71892.5,-8.35,-26.29,-28.15,0,*5B
1516089768.26,54006,6.81,71890.5,-8.35,-26.23,-28.15,0,*52
1516089769.49,54007,6.81,71890.3,-8.37,-26.23,-27.99,0,*5A
1516089770.75,54008,6.81,71892.3,-8.35,-26.07,-27.83,0,*5A
1516089771.99,54009,6.81,71890.0,-8.37,-26.07,-27.83,0,*59
1516089773.22,54010,6.81,71894.0,-8.35,-26.07,-27.93,0,*52
1516089774.47,54011,6.81,71892.8,-8.35,-26.23,-28.09,0,*59
1516089775.76,54012,6.81,71892.8,-8.35,-26.29,-27.99,0,*56
1516089777.0,54013,6.81,71892.3,-8.37,-26.23,-27.99,0,*5F
1516089778.25,54014,6.81,71892.8,-8.37,-26.29,-28.09,0,*54
1516089779.51,54015,6.81,71890.5,-8.37,-26.29,-28.09,0,*55
1516089780.78,54016,6.81,71896.8,-8.37,-26.29,-27.99,0,*50
1516089782.04,54017,6.81,71892.0,-8.37,-26.29,-27.99,0,*51
1516089783.3,54018,6.81,71886.5,-8.35,-26.39,-28.09,0,*5B
1516089784.56,54019,6.81,71886.3,-8.35,-26.45,-28.09,0,*51
1516089785.85,54020,6.81,71888.0,-8.35,-26.29,-27.99,0,*57
1516089787.11,54021,6.81,71890.5,-8.37,-26.29,-27.99,0,*54
1516089788.37,54022,6.81,71892.3,-8.35,-26.39,-27.99,0,*54
1516089789.61,54023,6.81,71892.8,-8.37,-26.39,-27.99,0,*57
1516089790.87,54024,6.81,71890.8,-8.35,-26.39,-27.99,0,*52
1516089792.16,54025,6.81,71892.0,-8.35,-26.29,-27.99,0,*52
1516089793.45,54026,6.81,71882.8,-8.35,-26.29,-27.83,0,*5A
1516089794.7,54027,6.81,71880.8,-8.35,-26.23,-27.83,0,*51
1516089795.93,54028,6.81,71880.3,-8.37,-26.23,-27.83,0,*5C
1516089797.19,54029,6.81,71884.0,-8.35,-26.29,-27.77,0,*5E
1516089798.42,54030,6.81,71884.3,-8.35,-26.23,-27.67,0,*5D
1516089799.68,54031,6.81,71884.8,-8.35,-26.29,-27.77,0,*57
1516089800.9,54032,6.81,71886.5,-8.35,-26.23,-27.77,0,*5E
1516089802.13,54033,6.81,71884.8,-8.35,-26.23,-27.77,0,*5F
1516089803.42,54034,6.81,71888.5,-8.35,-26.29,-27.83,0,*59
1516089804.65,54035,6.81,71888.3,-8.35,-26.45,-27.93,0,*53
1516089805.89,54036,6.81,71888.3,-8.33,-26.33,-27.77,0,*5D
1516089807.13,54037,6.81,71894.3,-8.33,-26.33,-27.71,0,*5A
1516089808.36,54038,6.81,71894.8,-8.33,-26.33,-27.77,0,*53
1516089809.6,54039,6.81,71888.0,-8.33,-26.33,-27.71,0,*54
1516089810.85,54040,6.81,71886.0,-8.33,-26.33,-27.89,0,*5D
1516089812.06,54041,6.81,71886.0,-8.33,-26.39,-27.89,0,*56
1516089813.29,54042,6.81,71876.5,-8.33,-26.55,-27.93,0,*54
1516089814.53,54043,6.81,71876.8,-8.33,-26.33,-27.89,0,*5E
1516089815.74,54044,6.81,71884.5,-8.33,-26.49,-27.77,0,*55
1516089816.97,54045,6.81,71882.0,-8.35,-26.45,-27.71,0,*58
1516089818.18,54046,6.81,71882.3,-8.33,-26.39,-27.77,0,*50
1516089819.42,54047,6.81,71882.5,-8.29,-26.33,-27.89,0,*51
1516089820.65,54048,6.81,71882.3,-8.35,-26.45,-27.93,0,*59
1516089821.86,54049,6.81,71878.5,-8.33,-26.39,-27.77,0,*5F
1516089823.06,54050,6.81,71882.8,-8.33,-26.23,-27.71,0,*5A
1516089824.29,54051,6.81,71886.0,-8.33,-26.55,-27.77,0,*5C
1516089825.5,54052,6.81,71880.3,-8.33,-26.49,-27.77,0,*52
1516089826.74,54053,6.81,71880.8,-8.33,-26.33,-27.71,0,*58
1516089827.95,54054,6.81,71882.3,-8.33,-26.39,-27.77,0,*53
1516089829.21,54055,6.81,71882.3,-8.35,-26.61,-27.83,0,*52
1516089830.49,54056,6.81,71880.5,-8.35,-26.55,-27.83,0,*56
1516089831.72,54057,6.81,71888.5,-8.35,-26.45,-27.77,0,*5D
1516089832.96,54058,6.81,71888.8,-8.35,-26.39,-27.67,0,*58
1516089834.2,54059,6.81,71886.0,-8.35,-26.39,-27.77,0,*58
1516089835.43,54060,6.81,71884.3,-8.35,-26.39,-27.77,0,*52
1516089836.64,54061,6.81,71890.0,-8.33,-26.49,-27.77,0,*52
1516089837.87,54062,6.81,71890.3,-8.33,-26.39,-27.61,0,*51
1516089839.14,54063,6.81,71888.3,-8.33,-26.33,-27.61,0,*5A
1516089840.34,54064,6.81,71892.5,-8.33,-26.23,-27.51,0,*5F
1516089841.61,54065,6.81,71896.3,-8.29,-26.17,-27.39,0,*5C
1516089842.87,54066,6.81,71892.3,-8.33,-26.17,-27.39,0,*54
1516089844.13,54067,6.81,71892.3,-8.33,-26.17,-27.39,0,*55
1516089845.37,54068,6.81,71890.5,-8.33,-26.33,-27.51,0,*52
1516089846.58,54069,6.81,71892.3,-8.33,-26.23,-27.51,0,*52
1516089847.84,54070,6.81,71890.0,-8.33,-26.17,-27.39,0,*53
1516089849.07,54071,6.81,71890.5,-8.33,-26.23,-27.39,0,*55
1516089850.33,54072,6.81,71890.8,-8.33,-26.17,-27.39,0,*51
1516089851.57,54073,6.81,71896.8,-8.33,-26.17,-27.51,0,*5E
1516089852.83,54074,6.81,71890.3,-8.29,-26.17,-27.39,0,*5C
1516089854.06,54075,6.81,71890.5,-8.29,-26.23,-27.39,0,*5A
1516089855.29,54076,6.81,71892.8,-8.33,-26.23,-27.39,0,*52
1516089856.53,54077,6.81,71890.0,-8.29,-26.23,-27.39,0,*58
1516089857.79,54078,6.81,71890.3,-8.33,-26.17,-27.35,0,*57
1516089859.02,54079,6.81,71894.0,-8.29,-26.23,-27.39,0,*56
1516089860.28,54080,6.81,71888.5,-8.33,-26.17,-27.39,0,*5C
1516089861.51,54081,6.81,71888.3,-8.33,-26.23,-27.39,0,*5A
1516089862.74,54082,6.81,71888.5,-8.29,-26.23,-27.39,0,*52
1516089863.97,54083,6.81,71894.5,-8.33,-26.23,-27.39,0,*58
1516089865.21,54084,6.81,71896.3,-8.29,-26.23,-27.39,0,*54
1516089866.43,54085,6.81,71892.5,-8.33,-26.23,-27.39,0,*5E
1516089867.7,54086,6.81,71892.8,-8.29,-26.17,-27.23,0,*5A
1516089868.96,54087,6.81,71886.8,-8.29,-26.17,-27.23,0,*5B
1516089870.23,54088,6.81,71892.3,-8.29,-26.33,-27.35,0,*55
1516089871.48,54089,6.81,71886.3,-8.29,-26.33,-27.51,0,*56
1516089872.68,54090,6.81,71880.3,-8.33,-26.23,-27.51,0,*54
1516089873.95,54091,6.81,71880.0,-8.29,-26.33,-27.39,0,*51
1516089875.15,54092,6.81,71884.0,-8.33,-26.23,-27.51,0,*56
1516089876.42,54093,6.81,71886.5,-8.29,-26.33,-27.39,0,*53
1516089877.69,54094,6.81,71886.5,-8.29,-26.33,-27.39,0,*54
1516089878.96,54095,6.81,71886.3,-8.29,-26.17,-27.39,0,*53
1516089880.19,54096,6.81,71890.3,-8.29,-26.23,-27.39,0,*57
1516089881.45,54097,6.81,71888.0,-8.29,-26.17,-27.39,0,*51
1516089882.69,54098,6.81,71890.0,-8.29,-26.23,-27.35,0,*55
1516089883.92,54099,6.81,71886.5,-8.29,-26.23,-27.35,0,*54
1516089885.15,54100,6.81,71890.3,-8.29,-26.23,-27.35,0,*55
1516089886.42,54101,6.81,71892.0,-8.29,-26.17,-27.23,0,*54
1516089887.68,54102,6.81,71892.3,-8.27,-26.13,-27.29,0,*57
1516089888.96,54103,6.81,71892.3,-8.27,-26.17,-27.19,0,*51
1516089890.22,54104,6.81,71894.0,-8.27,-26.17,-27.13,0,*5C
1516089891.48,54105,6.81,71890.5,-8.27,-26.17,-27.13,0,*5D
1516089892.77,54106,6.81,71888.5,-8.27,-26.29,-27.35,0,*57
1516089894.03,54107,6.81,71884.0,-8.27,-26.17,-27.29,0,*56
1516089895.27,54108,6.81,71880.3,-8.25,-26.17,-27.29,0,*5B
1516089896.54,54109,6.81,71884.0,-8.27,-26.17,-27.29,0,*58
1516089897.82,54110,6.81,71890.3,-8.27,-26.13,-27.19,0,*57
1516089899.08,54111,6.81,71890.0,-8.27,-26.29,-27.29,0,*5C
1516089900.34,54112,6.81,71892.8,-8.27,-26.29,-27.29,0,*5F
1516089901.61,54113,6.81,71894.0,-8.25,-26.33,-27.35,0,*5A
1516089902.87,54114,6.81,71898.5,-8.27,-26.33,-27.29,0,*52
1516089904.14,54115,6.81,71892.3,-8.27,-26.33,-27.29,0,*53
1516089905.42,54116,6.81,71890.0,-8.27,-26.29,-27.19,0,*58
1516089906.71,54117,6.81,71884.3,-8.27,-26.29,-27.19,0,*59
1516089907.96,54118,6.81,71890.8,-8.27,-26.17,-27.13,0,*51
1516089909.22,54119,6.81,71894.5,-8.25,-26.13,-26.97,0,*5B
1516089910.46,54120,6.81,71890.0,-8.25,-26.13,-27.03,0,*5D
1516089911.71,54121,6.81,71892.3,-8.27,-26.13,-27.13,0,*5F
1516089912.96,54122,6.81,71892.3,-8.27,-26.03,-27.03,0,*5C
1516089914.2,54123,6.81,71892.8,-8.25,-26.03,-26.97,0,*53
1516089915.46,54124,6.81,71894.5,-8.25,-25.97,-26.97,0,*5A
1516089916.73,54125,6.81,71888.5,-8.27,-26.03,-26.97,0,*57
1516089918.01,54126,6.81,71892.0,-8.27,-26.13,-27.19,0,*52
1516089919.25,54127,6.81,71896.8,-8.25,-26.17,-27.29,0,*56
1516089920.49,54128,6.81,71898.5,-8.25,-26.13,-27.03,0,*55
1516089921.72,54129,6.81,71892.5,-8.25,-26.13,-27.03,0,*54
1516089922.96,54130,6.81,71892.5,-8.25,-25.97,-26.87,0,*5E
1516089924.22,54131,6.81,71896.5,-8.25,-25.97,-26.97,0,*5E
1516089925.44,54132,6.81,71892.8,-8.25,-26.03,-26.87,0,*52
1516089926.66,54133,6.81,71898.3,-8.25,-26.03,-27.03,0,*5E
1516089927.89,54134,6.81,71898.5,-8.25,-25.97,-27.03,0,*57
1516089929.13,54135,6.81,71898.3,-8.25,-26.29,-27.29,0,*58
1516089930.37,54136,6.81,71894.8,-8.25,-26.17,-27.29,0,*56
1516089931.61,54137,6.81,71890.5,-8.25,-26.13,-27.29,0,*53
1516089932.86,54138,6.81,71890.5,-8.25,-26.33,-27.29,0,*5E
1516089934.14,54139,6.81,71886.8,-8.27,-26.33,-27.45,0,*57
1516089935.37,54140,6.81,71886.0,-8.25,-26.45,-27.35,0,*5D
1516089936.62,54141,6.81,71884.5,-8.25,-26.17,-27.29,0,*56
1516089937.87,54142,6.81,71890.0,-8.27,-26.13,-27.13,0,*5A
1516089939.1,54143,6.81,71890.3,-8.25,-26.13,-27.13,0,*59
1516089940.33,54144,6.81,71894.5,-8.25,-26.13,-27.13,0,*5E
1516089941.59,54145,6.81,71896.8,-8.27,-26.13,-27.03,0,*5C
1516089942.83,54146,6.81,71892.3,-8.25,-26.29,-27.29,0,*5C
1516089944.09,54147,6.81,71896.5,-8.25,-26.13,-27.19,0,*57
1516089945.34,54148,6.81,71902.3,-8.27,-26.13,-27.13,0,*50
1516089946.61,54149,6.81,71904.5,-8.25,-25.97,-26.97,0,*51
1516089947.84,54150,6.81,71898.5,-8.25,-26.13,-27.13,0,*5B
1516089949.1,54151,6.81,71892.3,-8.25,-25.97,-26.97,0,*58
1516089950.34,54152,6.81,71896.3,-8.27,-26.03,-27.03,0,*5B
1516089951.58,54153,6.81,71898.3,-8.25,-25.97,-27.03,0,*56
1516089952.79,54154,6.81,71898.5,-8.25,-25.87,-26.87,0,*5D
1516089954.05,54155,6.81,71902.8,-8.25,-25.81,-26.97,0,*5B
1516089955.28,54156,6.81,71890.5,-8.25,-25.97,-27.13,0,*52
1516089956.5,54157,6.81,71890.8,-8.25,-26.03,-27.13,0,*5D
1516089957.73,54158,6.81,71894.3,-8.27,-25.87,-27.03,0,*5E
1516089958.99,54159,6.81,71892.0,-8.27,-25.87,-26.97,0,*53
1516089960.25,54160,6.81,71884.3,-8.27,-25.81,-26.87,0,*5E
1516089961.53,54161,6.81,71884.8,-8.27,-25.81,-26.97,0,*5E
1516089962.81,54162,6.81,71888.0,-8.27,-25.81,-26.97,0,*5D
1516089964.08,54163,6.81,71892.0,-8.25,-25.71,-26.81,0,*56
1516089965.37,54164,6.81,71896.0,-8.27,-25.71,-26.81,0,*53
1516089966.62,54165,6.81,71892.3,-8.27,-25.65,-26.81,0,*57
1516089967.88,54166,6.81,71886.5,-8.27,-25.65,-26.81,0,*54
1516089969.11,54167,6.81,71890.0,-8.25,-25.65,-26.71,0,*58
1516089970.37,54168,6.81,71894.8,-8.25,-25.81,-26.97,0,*55
1516089971.65,54169,6.81,71892.3,-8.27,-25.81,-26.97,0,*56
1516089972.94,54170,6.81,71890.5,-8.27,-25.55,-26.81,0,*50
1516089974.23,54171,6.81,71898.3,-8.27,-25.71,-26.97,0,*50
1516089975.47,54172,6.81,71892.5,-8.27,-25.49,-26.87,0,*59
1516089976.75,54173,6.81,71896.3,-8.27,-25.55,-26.81,0,*53
1516089978.04,54174,6.81,71894.8,-8.27,-25.55,-26.81,0,*54
1516089979.27,54175,6.81,71900.8,-8.25,-25.49,-26.71,0,*55
1516089980.53,54176,6.81,71894.5,-8.27,-25.49,-26.71,0,*54
1516089981.79,54177,6.81,71892.8,-8.25,-25.55,-26.71,0,*5A
1516089983.02,54178,6.81,71892.0,-8.25,-25.49,-26.71,0,*58
1516089984.29,54179,6.81,71888.5,-8.27,-25.55,-26.87,0,*5F
1516089985.52,54180,6.81,71890.0,-8.27,-25.65,-26.87,0,*5A
1516089986.77,54181,6.81,71890.3,-8.27,-25.49,-26.71,0,*5C
1516089987.98,54182,6.81,71886.8,-8.25,-25.35,-26.65,0,*53
1516089989.18,54183,6.81,71896.8,-8.25,-25.39,-26.65,0,*5E
1516089990.39,54184,6.81,71894.3,-8.25,-25.35,-26.65,0,*55
1516089991.64,54185,6.81,71892.8,-8.27,-25.19,-26.55,0,*5B
1516089992.84,54186,6.81,71894.5,-8.25,-25.19,-26.49,0,*57
1516089994.06,54187,6.81,71894.5,-8.27,-25.19,-26.49,0,*54
1516089995.26,54188,6.81,71888.5,-8.25,-25.19,-26.49,0,*59
1516089996.47,54189,6.81,71884.8,-8.25,-25.13,-26.45,0,*5E
1516089997.7,54190,6.81,71888.3,-8.27,-25.13,-26.45,0,*54
1516089998.9,54191,6.81,71884.0,-8.25,-25.13,-26.45,0,*57
1516090000.11,54192,6.81,71888.8,-8.25,-25.13,-26.49,0,*58
1516090001.37,54193,6.81,71890.0,-8.27,-25.03,-26.45,0,*56
1516090002.57,54194,6.81,71884.5,-8.25,-25.13,-26.45,0,*52
1516090003.82,54195,6.81,71888.5,-8.27,-25.03,-26.49,0,*5C
1516090005.05,54196,6.81,71886.5,-8.27,-25.13,-26.45,0,*52
1516090006.28,54197,6.81,71878.5,-8.27,-25.13,-26.49,0,*5F
1516090007.49,54198,6.81,71886.0,-8.25,-25.13,-26.45,0,*5E
1516090008.72,54199,6.81,71886.0,-8.25,-24.97,-26.33,0,*53
1516090009.96,54200,6.81,71892.8,-8.25,-24.97,-26.29,0,*5B
1516090011.19,54201,6.81,71892.5,-8.25,-24.97,-26.33,0,*51
1516090012.43,54202,6.81,71886.3,-8.25,-24.97,-26.33,0,*52
1516090013.71,54203,6.81,71884.0,-8.27,-24.87,-26.29,0,*5B
1516090014.98,54204,6.81,71888.5,-8.25,-24.71,-26.13,0,*5E
1516090016.2,54205,6.81,71890.5,-8.25,-24.57,-26.03,0,*5A
1516090017.42,54206,6.81,71888.3,-8.25,-24.51,-26.03,0,*5F
1516090018.64,54207,6.81,71892.0,-8.25,-24.51,-26.03,0,*5E
1516090019.86,54208,6.81,71896.8,-8.25,-24.51,-26.03,0,*51
1516090021.1,54209,6.81,71896.8,-8.23,-24.47,-25.91,0,*59
1516090022.34,54210,6.81,71892.3,-8.23,-24.47,-25.91,0,*51
1516090023.61,54211,6.81,71888.5,-8.23,-24.35,-25.97,0,*53
1516090024.88,54212,6.81,71884.3,-8.23,-24.31,-25.81,0,*53
1516090026.12,54213,6.81,71880.8,-8.23,-24.31,-25.91,0,*53
1516090027.41,54214,6.81,71886.8,-8.23,-24.25,-25.81,0,*50
1516090028.68,54215,6.81,71890.8,-8.23,-24.31,-25.81,0,*54
1516090029.93,54216,6.81,71888.0,-8.21,-24.31,-25.97,0,*52
1516090031.2,54217,6.81,71890.0,-8.23,-24.25,-25.65,0,*59
1516090032.47,54218,6.81,71894.0,-8.23,-24.11,-25.65,0,*51
1516090033.73,54219,6.81,71894.5,-8.21,-24.15,-25.75,0,*57
1516090035.0,54220,6.81,71896.5,-8.21,-24.11,-25.81,0,*52
1516090036.27,54221,6.81,71896.8,-8.21,-24.11,-25.75,0,*58
1516090037.55,54222,6.81,71888.5,-8.23,-24.11,-25.81,0,*52
1516090038.82,54223,6.81,71890.5,-8.21,-24.11,-25.75,0,*5A
1516090040.09,54224,6.81,71888.0,-8.21,-24.11,-25.75,0,*5D
1516090041.33,54225,6.81,71886.8,-8.21,-24.11,-25.65,0,*5D
1516090042.58,54226,6.81,71888.5,-8.21,-23.99,-25.65,0,*59
1516090043.82,54227,6.81,71890.3,-8.21,-23.95,-25.65,0,*54
1516090045.11,54228,6.81,71888.5,-8.19,-23.95,-25.55,0,*53
1516090046.38,54229,6.81,71896.3,-8.19,-23.89,-25.55,0,*5F
1516090047.64,54230,6.81,71896.8,-8.19,-23.95,-25.61,0,*5D
1516090048.93,54231,6.81,71892.0,-8.19,-23.95,-25.75,0,*59
1516090050.22,54232,6.81,71892.8,-8.19,-24.11,-25.75,0,*51
1516090051.47,54233,6.81,71892.0,-8.17,-24.05,-25.71,0,*5F
1516090052.73,54234,6.81,71898.5,-8.19,-23.89,-25.55,0,*53
1516090054.0,54235,6.81,71894.3,-8.19,-23.95,-25.61,0,*58
1516090055.24,54236,6.81,71892.3,-8.17,-23.95,-25.61,0,*55
1516090056.48,54237,6.81,71894.8,-8.17,-23.75,-25.45,0,*5C
1516090057.74,54238,6.81,71892.0,-8.17,-23.49,-25.29,0,*56
1516090059.03,54239,6.81,71886.3,-8.19,-23.65,-25.29,0,*57
1516090060.26,54240,6.81,71888.5,-8.17,-23.33,-25.23,0,*5E
1516090061.5,54241,6.81,71890.3,-8.17,-23.33,-25.09,0,*57
1516090062.74,54242,6.81,71890.3,-8.17,-23.59,-25.29,0,*5A
1516090063.99,54243,6.81,71890.8,-8.17,-23.65,-25.45,0,*5E
1516090065.26,54244,6.81,71888.0,-8.15,-23.53,-25.39,0,*55
1516090066.48,54245,6.81,71894.3,-8.13,-23.75,-25.39,0,*56
1516090067.72,54246,6.81,71890.8,-8.13,-23.69,-25.49,0,*5F
1516090068.98,54247,6.81,71890.0,-8.15,-23.69,-25.35,0,*53
1516090070.22,54248,6.81,71892.0,-8.15,-23.59,-25.35,0,*5F
1516090071.43,54249,6.81,71892.5,-8.13,-23.43,-25.35,0,*53
1516090072.68,54250,6.81,71892.0,-8.15,-23.43,-25.35,0,*5D
1516090073.92,54251,6.81,71886.5,-8.15,-23.43,-25.35,0,*5C
1516090075.16,54252,6.81,71886.8,-8.13,-23.53,-25.35,0,*58
1516090076.43,54253,6.81,71888.8,-8.15,-23.53,-25.39,0,*53
1516090077.7,54254,6.81,71892.5,-8.15,-23.59,-25.55,0,*54
1516090078.97,54255,6.81,71892.5,-8.15,-23.53,-25.35,0,*59
1516090080.18,54256,6.81,71892.8,-8.13,-23.43,-25.35,0,*5D
1516090081.4,54257,6.81,71892.8,-8.13,-23.59,-25.49,0,*5C
1516090082.62,54258,6.81,71894.8,-8.13,-23.75,-25.49,0,*5D
1516090083.86,54259,6.81,71892.3,-8.13,-23.53,-25.39,0,*5F
1516090085.1,54260,6.81,71892.5,-8.13,-23.53,-25.39,0,*55
1516090086.34,54261,6.81,71892.8,-8.13,-23.53,-25.39,0,*54
1516090087.56,54262,6.81,71890.5,-8.13,-23.43,-25.39,0,*56
1516090088.81,54263,6.81,71886.5,-8.15,-23.43,-25.35,0,*5D
1516090090.02,54264,6.81,71880.8,-8.13,-23.43,-25.39,0,*50
1516090091.28,54265,6.81,71878.8,-8.11,-23.39,-25.29,0,*5F
1516090092.49,54266,6.81,71872.5,-8.13,-23.39,-25.35,0,*53
1516090093.76,54267,6.81,71866.8,-8.11,-23.53,-25.49,0,*57
1516090095.03,54268,6.81,71880.3,-8.11,-23.53,-25.49,0,*58
1516090096.31,54269,6.81,71882.8,-8.11,-23.49,-25.45,0,*5E
1516090097.58,54270,6.81,71880.3,-8.11,-23.49,-25.49,0,*5A
1516090098.87,54271,6.81,71878.3,-8.11,-23.49,-25.29,0,*5D
1516090100.12,54272,6.81,71876.8,-8.11,-23.39,-25.29,0,*59
1516090101.41,54273,6.81,71880.5,-8.11,-23.33,-25.29,0,*52
1516090102.7,54274,6.81,71882.0,-8.11,-23.53,-25.29,0,*53
1516090103.96,54275,6.88,71892.8,-8.11,-23.39,-25.29,0,*5E
1516090105.24,54276,6.81,71882.5,-8.11,-23.23,-25.29,0,*56
1516090106.51,54277,6.81,71886.3,-8.07,-23.19,-25.13,0,*50